S C — FGF7634 — position and weather

sailwx.info

Track history (hours):
 
Tides and Currents Weather Stations Pressure Air Temp Water Temp Dewpoint Dewpoint Depression Visibility Wind Speed Wind Dir Waves Ship Positions

S C

Last reported at 2014-Oct-24 12:10 UTC. Time now 2014-Oct-25 12:44 UTC.
Position N 49°29' E 000°07'.

; draft 1 m.

Type: Pilot. MMSI: 227001820.

Date/timePositionNaut miles runAvg speedWind from/ knotsBaromVisibWave heightAir tempDewpointWater temp
2014-Oct-24 12:10N 49°29' E 000°07'0 0.0
2014-Oct-24 11:33N 49°29' E 000°07'0 0.0
2014-Oct-24 10:33N 49°29' E 000°07'0 0.0
2014-Oct-24 09:33N 49°29' E 000°07'0 0.0
2014-Oct-24 08:33N 49°29' E 000°07'0 0.0
2014-Oct-24 07:33N 49°29' E 000°07'0 0.0
2014-Oct-24 06:33N 49°29' E 000°07'0 0.0
2014-Oct-24 05:33N 49°29' E 000°07'3 2.8
2014-Oct-24 04:34N 49°30' E 000°03'3 2.8
2014-Oct-24 03:33N 49°29' E 000°07'0 0.0
2014-Oct-24 02:33N 49°29' E 000°07'0 0.0
2014-Oct-24 01:33N 49°29' E 000°07'1 1.4
2014-Oct-24 00:33N 49°29' E 000°05'1 1.4
2014-Oct-23 23:33N 49°29' E 000°07'2 1.6
2014-Oct-23 22:33N 49°29' E 000°04'1 1.0
2014-Oct-23 21:33N 49°29' E 000°06'1 0.6
2014-Oct-23 20:33N 49°29' E 000°07'0 0.0
2014-Oct-23 19:33N 49°29' E 000°07'1 1.3
2014-Oct-23 18:33N 49°29' E 000°05'1 1.3
2014-Oct-23 17:33N 49°29' E 000°07'1 0.6
2014-Oct-23 16:33N 49°29' E 000°06'1 0.6
2014-Oct-23 15:33N 49°29' E 000°07'0 0.0
2014-Oct-23 14:33N 49°29' E 000°07'0 0.0
2014-Oct-23 13:33N 49°29' E 000°07'0 0.0
2014-Oct-23 12:33N 49°29' E 000°07'3 3.4
2014-Oct-23 11:33N 49°30' E 000°02'3 3.3
2014-Oct-23 10:33N 49°29' E 000°07'0 0.0
2014-Oct-23 09:34N 49°29' E 000°07'0 0.0
2014-Oct-23 08:34N 49°29' E 000°07'0 0.0
2014-Oct-23 07:33N 49°29' E 000°07'0 0.0
2014-Oct-23 06:33N 49°29' E 000°07'0 0.0
2014-Oct-23 05:34N 49°29' E 000°07'0 0.0
2014-Oct-23 04:33N 49°29' E 000°07'2 1.8
2014-Oct-23 03:33N 49°29' E 000°04'2 1.7
2014-Oct-23 02:33N 49°29' E 000°07'3 3.4
2014-Oct-23 01:34N 49°30' E 000°02'2 2.4
2014-Oct-23 00:34N 49°29' E 000°05'3 2.9
2014-Oct-22 23:34N 49°30' E 000°01'4 3.9
2014-Oct-22 22:33N 49°29' E 000°07'0 0.0
2014-Oct-22 21:33N 49°29' E 000°07'0 0.0
2014-Oct-22 20:33N 49°29' E 000°07'0 0.0
2014-Oct-22 19:33N 49°29' E 000°07'0 0.0
2014-Oct-22 18:33N 49°29' E 000°07'0 0.0
2014-Oct-22 17:33N 49°29' E 000°07'4 3.6
2014-Oct-22 16:33N 49°30' E 000°01'4 3.6
2014-Oct-22 15:33N 49°29' E 000°07'0 0.0
2014-Oct-22 14:33N 49°29' E 000°07'0 0.0
2014-Oct-22 13:33N 49°29' E 000°07'0 0.0
2014-Oct-22 12:33N 49°29' E 000°07'0 0.1
2014-Oct-22 11:33N 49°29' E 000°07'0 0.1
2014-Oct-22 10:33N 49°29' E 000°07'0 0.0
2014-Oct-22 09:33N 49°29' E 000°07'0 0.0
2014-Oct-22 08:33N 49°29' E 000°07'0 0.0
2014-Oct-22 07:33N 49°29' E 000°07'1 0.6
2014-Oct-22 06:34N 49°29' E 000°06'2 1.9
2014-Oct-22 05:33N 49°30' E 000°03'2 1.6
2014-Oct-22 04:33N 49°29' E 000°05'1 0.9
2014-Oct-22 03:33N 49°29' E 000°07'0 0.0
2014-Oct-22 02:33N 49°29' E 000°07'0 0.0
2014-Oct-22 01:33N 49°29' E 000°07'0 0.0
2014-Oct-22 00:33N 49°29' E 000°07'4 4.4
2014-Oct-21 23:33N 49°30' E 000°00'4 4.4
2014-Oct-21 22:33N 49°29' E 000°07'0 0.0
2014-Oct-21 21:33N 49°29' E 000°07'0 0.0
2014-Oct-21 20:33N 49°29' E 000°07'0 0.0
2014-Oct-21 19:33N 49°29' E 000°07'0 0.0
2014-Oct-21 18:33N 49°29' E 000°07'0 0.0
2014-Oct-21 17:33N 49°29' E 000°07'0 0.0
2014-Oct-21 16:33N 49°29' E 000°07'0 0.0
2014-Oct-21 15:34N 49°29' E 000°07'0 0.0
2014-Oct-21 14:34N 49°29' E 000°07'0 0.0
2014-Oct-21 13:34N 49°29' E 000°07'0 0.0
2014-Oct-21 12:33N 49°29' E 000°07'0 0.0
2014-Oct-21 11:33N 49°29' E 000°07'0 0.0
2014-Oct-21 10:33N 49°29' E 000°07'0 0.0
2014-Oct-21 09:34N 49°29' E 000°07'0 0.0
2014-Oct-21 08:33N 49°29' E 000°07'0 0.0
2014-Oct-21 07:34N 49°29' E 000°07'1 0.9
2014-Oct-21 06:34N 49°28' E 000°07'5 4.8
2014-Oct-21 05:34N 49°30' E 000°01'4 4.0
2014-Oct-21 04:33N 49°29' E 000°07'7 6.6
2014-Oct-21 03:33N 49°31' W 000°03'6 5.8
2014-Oct-21 02:33N 49°29' E 000°05'1 1.0
2014-Oct-21 01:33N 49°29' E 000°07'1 0.9
2014-Oct-21 00:33N 49°29' E 000°05'1 0.9
2014-Oct-20 23:33N 49°29' E 000°07'0 0.0
2014-Oct-20 22:33N 49°29' E 000°07'2 2.4
2014-Oct-20 21:34N 49°30' E 000°03'2 2.4
2014-Oct-20 20:33N 49°29' E 000°07'5 5.3
2014-Oct-20 19:34N 49°30' W 000°01'5 5.3
2014-Oct-20 18:33N 49°29' E 000°07'5 4.6
2014-Oct-20 17:34N 49°30' W 000°00'5 4.6
2014-Oct-20 16:33N 49°29' E 000°07'0 0.1
2014-Oct-20 15:34N 49°29' E 000°07'0 0.1
2014-Oct-20 14:33N 49°29' E 000°07'6 5.5
2014-Oct-20 13:33N 49°32' W 000°00'6 5.5
2014-Oct-20 12:33N 49°29' E 000°07'  
Track history (hours):
 
Tides and Currents Weather Stations Pressure Air Temp Water Temp Dewpoint Dewpoint Depression Visibility Wind Speed Wind Dir Waves Ship Positions

S C

Last reported at 2014-Oct-24 12:10 UTC. Time now 2014-Oct-25 12:44 UTC.
Position N 49°29' E 000°07'.

; draft 1 m.

Type: Pilot. MMSI: 227001820.

Date/timePositionNaut miles runAvg speedWind from/ knotsBaromVisibWave heightAir tempDewpointWater temp
2014-Oct-24 12:10N 49°29' E 000°07'0 0.0
2014-Oct-24 11:33N 49°29' E 000°07'0 0.0
2014-Oct-24 10:33N 49°29' E 000°07'0 0.0
2014-Oct-24 09:33N 49°29' E 000°07'0 0.0
2014-Oct-24 08:33N 49°29' E 000°07'0 0.0
2014-Oct-24 07:33N 49°29' E 000°07'0 0.0
2014-Oct-24 06:33N 49°29' E 000°07'0 0.0
2014-Oct-24 05:33N 49°29' E 000°07'3 2.8
2014-Oct-24 04:34N 49°30' E 000°03'3 2.8
2014-Oct-24 03:33N 49°29' E 000°07'0 0.0
2014-Oct-24 02:33N 49°29' E 000°07'0 0.0
2014-Oct-24 01:33N 49°29' E 000°07'1 1.4
2014-Oct-24 00:33N 49°29' E 000°05'1 1.4
2014-Oct-23 23:33N 49°29' E 000°07'2 1.6
2014-Oct-23 22:33N 49°29' E 000°04'1 1.0
2014-Oct-23 21:33N 49°29' E 000°06'1 0.6
2014-Oct-23 20:33N 49°29' E 000°07'0 0.0
2014-Oct-23 19:33N 49°29' E 000°07'1 1.3
2014-Oct-23 18:33N 49°29' E 000°05'1 1.3
2014-Oct-23 17:33N 49°29' E 000°07'1 0.6
2014-Oct-23 16:33N 49°29' E 000°06'1 0.6
2014-Oct-23 15:33N 49°29' E 000°07'0 0.0
2014-Oct-23 14:33N 49°29' E 000°07'0 0.0
2014-Oct-23 13:33N 49°29' E 000°07'0 0.0
2014-Oct-23 12:33N 49°29' E 000°07'3 3.4
2014-Oct-23 11:33N 49°30' E 000°02'3 3.3
2014-Oct-23 10:33N 49°29' E 000°07'0 0.0
2014-Oct-23 09:34N 49°29' E 000°07'0 0.0
2014-Oct-23 08:34N 49°29' E 000°07'0 0.0
2014-Oct-23 07:33N 49°29' E 000°07'0 0.0
2014-Oct-23 06:33N 49°29' E 000°07'0 0.0
2014-Oct-23 05:34N 49°29' E 000°07'0 0.0
2014-Oct-23 04:33N 49°29' E 000°07'2 1.8
2014-Oct-23 03:33N 49°29' E 000°04'2 1.7
2014-Oct-23 02:33N 49°29' E 000°07'3 3.4
2014-Oct-23 01:34N 49°30' E 000°02'2 2.4
2014-Oct-23 00:34N 49°29' E 000°05'3 2.9
2014-Oct-22 23:34N 49°30' E 000°01'4 3.9
2014-Oct-22 22:33N 49°29' E 000°07'0 0.0
2014-Oct-22 21:33N 49°29' E 000°07'0 0.0
2014-Oct-22 20:33N 49°29' E 000°07'0 0.0
2014-Oct-22 19:33N 49°29' E 000°07'0 0.0
2014-Oct-22 18:33N 49°29' E 000°07'0 0.0
2014-Oct-22 17:33N 49°29' E 000°07'4 3.6
2014-Oct-22 16:33N 49°30' E 000°01'4 3.6
2014-Oct-22 15:33N 49°29' E 000°07'0 0.0
2014-Oct-22 14:33N 49°29' E 000°07'0 0.0
2014-Oct-22 13:33N 49°29' E 000°07'0 0.0
2014-Oct-22 12:33N 49°29' E 000°07'0 0.1
2014-Oct-22 11:33N 49°29' E 000°07'0 0.1
2014-Oct-22 10:33N 49°29' E 000°07'0 0.0
2014-Oct-22 09:33N 49°29' E 000°07'0 0.0
2014-Oct-22 08:33N 49°29' E 000°07'0 0.0
2014-Oct-22 07:33N 49°29' E 000°07'1 0.6
2014-Oct-22 06:34N 49°29' E 000°06'2 1.9
2014-Oct-22 05:33N 49°30' E 000°03'2 1.6
2014-Oct-22 04:33N 49°29' E 000°05'1 0.9
2014-Oct-22 03:33N 49°29' E 000°07'0 0.0
2014-Oct-22 02:33N 49°29' E 000°07'0 0.0
2014-Oct-22 01:33N 49°29' E 000°07'0 0.0
2014-Oct-22 00:33N 49°29' E 000°07'4 4.4
2014-Oct-21 23:33N 49°30' E 000°00'4 4.4
2014-Oct-21 22:33N 49°29' E 000°07'0 0.0
2014-Oct-21 21:33N 49°29' E 000°07'0 0.0
2014-Oct-21 20:33N 49°29' E 000°07'0 0.0
2014-Oct-21 19:33N 49°29' E 000°07'0 0.0
2014-Oct-21 18:33N 49°29' E 000°07'0 0.0
2014-Oct-21 17:33N 49°29' E 000°07'0 0.0
2014-Oct-21 16:33N 49°29' E 000°07'0 0.0
2014-Oct-21 15:34N 49°29' E 000°07'0 0.0
2014-Oct-21 14:34N 49°29' E 000°07'0 0.0
2014-Oct-21 13:34N 49°29' E 000°07'0 0.0
2014-Oct-21 12:33N 49°29' E 000°07'0 0.0
2014-Oct-21 11:33N 49°29' E 000°07'0 0.0
2014-Oct-21 10:33N 49°29' E 000°07'0 0.0
2014-Oct-21 09:34N 49°29' E 000°07'0 0.0
2014-Oct-21 08:33N 49°29' E 000°07'0 0.0
2014-Oct-21 07:34N 49°29' E 000°07'1 0.9
2014-Oct-21 06:34N 49°28' E 000°07'5 4.8
2014-Oct-21 05:34N 49°30' E 000°01'4 4.0
2014-Oct-21 04:33N 49°29' E 000°07'7 6.6
2014-Oct-21 03:33N 49°31' W 000°03'6 5.8
2014-Oct-21 02:33N 49°29' E 000°05'1 1.0
2014-Oct-21 01:33N 49°29' E 000°07'1 0.9
2014-Oct-21 00:33N 49°29' E 000°05'1 0.9
2014-Oct-20 23:33N 49°29' E 000°07'0 0.0
2014-Oct-20 22:33N 49°29' E 000°07'2 2.4
2014-Oct-20 21:34N 49°30' E 000°03'2 2.4
2014-Oct-20 20:33N 49°29' E 000°07'5 5.3
2014-Oct-20 19:34N 49°30' W 000°01'5 5.3
2014-Oct-20 18:33N 49°29' E 000°07'5 4.6
2014-Oct-20 17:34N 49°30' W 000°00'5 4.6
2014-Oct-20 16:33N 49°29' E 000°07'0 0.1
2014-Oct-20 15:34N 49°29' E 000°07'0 0.1
2014-Oct-20 14:33N 49°29' E 000°07'6 5.5
2014-Oct-20 13:33N 49°32' W 000°00'6 5.5
2014-Oct-20 12:33N 49°29' E 000°07'  

Dump ship's entire track history